Total_Precipitation_Accumulation
0.11 0.17 0.48 0.65 0.68 0.60 0.51 0.44 0.41 0.41 0.39 0.36 0.34 0.32 0.30 0.30 0.29 0.28 0.30 0.32 0.37 0.45 0.53 0.57 0.61 0.72 0.67 0.49 0.34 0.24 0.22 0.20 0.18 0.17 0.16 0.20 0.25 0.27 0.23 0.22 0.25 0.32 0.42
0.11 0.20 0.47 0.68 0.78 0.73 0.63 0.54 0.46 0.41 0.39 0.40 0.41 0.42 0.38 0.34 0.34 0.37 0.40 0.42 0.47 0.55 0.62 0.66 0.66 0.69 0.62 0.47 0.29 0.17 0.12 0.09 0.07 0.05 0.04 0.07 0.16 0.22 0.19 0.19 0.21 0.33 0.40
0.14 0.25 0.47 0.70 0.84 0.82 0.75 0.66 0.57 0.53 0.49 0.49 0.53 0.53 0.52 0.47 0.46 0.48 0.52 0.53 0.57 0.59 0.61 0.69 0.65 0.62 0.53 0.43 0.28 0.18 0.12 0.08 0.06 0.04 0.05 0.08 0.18 0.24 0.23 0.23 0.29 0.37 0.41
0.20 0.30 0.47 0.70 0.90 0.90 0.84 0.77 0.70 0.73 0.67 0.62 0.64 0.66 0.64 0.62 0.59 0.60 0.59 0.59 0.59 0.57 0.56 0.57 0.50 0.45 0.35 0.29 0.25 0.20 0.14 0.10 0.06 0.05 0.08 0.11 0.19 0.34 0.35 0.33 0.35 0.38 0.40
0.33 0.42 0.60 0.81 0.96 1.00 0.91 0.90 0.86 0.89 0.88 0.82 0.77 0.77 0.79 0.77 0.70 0.64 0.61 0.63 0.59 0.54 0.48 0.45 0.37 0.29 0.24 0.21 0.19 0.20 0.15 0.10 0.07 0.06 0.08 0.11 0.19 0.38 0.36 0.34 0.31 0.31 0.38
0.48 0.55 0.75 0.94 1.07 1.10 0.99 0.96 0.97 0.98 1.02 0.99 0.89 0.85 0.87 0.88 0.78 0.64 0.61 0.58 0.51 0.47 0.44 0.38 0.31 0.25 0.21 0.20 0.19 0.18 0.16 0.10 0.06 0.06 0.08 0.12 0.18 0.34 0.33 0.29 0.29 0.30 0.35
0.69 0.77 0.91 1.14 1.31 1.34 1.23 1.15 1.10 1.08 1.09 1.11 1.01 0.91 0.93 0.98 0.96 0.76 0.61 0.52 0.44 0.42 0.38 0.35 0.29 0.26 0.22 0.21 0.22 0.18 0.14 0.09 0.08 0.08 0.10 0.14 0.23 0.37 0.35 0.32 0.31 0.32 0.33
0.89 0.98 1.14 1.38 1.47 1.56 1.47 1.35 1.30 1.25 1.17 1.14 1.14 1.08 1.02 1.05 1.07 0.88 0.64 0.53 0.48 0.42 0.37 0.36 0.33 0.27 0.23 0.22 0.22 0.19 0.14 0.09 0.07 0.07 0.08 0.12 0.22 0.36 0.37 0.36 0.33 0.32 0.33
1.17 1.28 1.36 1.49 1.60 1.75 1.59 1.41 1.38 1.37 1.31 1.23 1.20 1.15 1.07 1.06 1.02 0.87 0.66 0.57 0.54 0.47 0.40 0.38 0.39 0.34 0.28 0.25 0.23 0.18 0.13 0.09 0.06 0.07 0.07 0.10 0.19 0.32 0.36 0.40 0.40 0.38 0.36
1.48 1.59 1.59 1.59 1.65 1.83 1.78 1.52 1.36 1.27 1.27 1.30 1.23 1.07 0.88 0.87 0.91 0.83 0.60 0.54 0.54 0.49 0.42 0.40 0.40 0.39 0.32 0.25 0.21 0.17 0.14 0.14 0.10 0.08 0.08 0.11 0.20 0.32 0.33 0.37 0.40 0.42 0.41
1.82 1.86 1.86 1.78 1.70 1.78 1.84 1.63 1.51 1.38 1.31 1.30 1.26 1.02 0.86 0.88 0.87 0.78 0.56 0.42 0.48 0.46 0.42 0.42 0.45 0.43 0.34 0.26 0.21 0.15 0.13 0.14 0.13 0.11 0.11 0.15 0.24 0.34 0.36 0.37 0.37 0.40 0.40
1.92 1.98 2.04 1.93 1.88 1.89 1.90 1.80 1.75 1.60 1.46 1.37 1.25 1.13 1.01 0.94 0.94 0.82 0.67 0.46 0.44 0.45 0.45 0.47 0.46 0.49 0.39 0.28 0.22 0.19 0.16 0.14 0.15 0.13 0.12 0.18 0.30 0.37 0.41 0.38 0.35 0.36 0.37
2.12 2.18 2.24 2.12 2.09 2.05 2.01 1.86 1.77 1.64 1.56 1.52 1.45 1.25 1.17 1.11 1.02 1.00 0.87 0.71 0.61 0.49 0.50 0.48 0.49 0.45 0.37 0.31 0.28 0.23 0.19 0.19 0.17 0.15 0.15 0.20 0.30 0.41 0.48 0.48 0.43 0.42 0.42
2.38 2.48 2.46 2.38 2.33 2.24 2.14 1.95 1.75 1.60 1.49 1.46 1.44 1.41 1.32 1.24 1.12 1.02 0.91 0.76 0.69 0.56 0.51 0.49 0.44 0.39 0.36 0.36 0.35 0.30 0.25 0.20 0.18 0.17 0.17 0.19 0.24 0.38 0.48 0.51 0.53 0.54 0.55
2.64 2.68 2.73 2.65 2.50 2.31 2.23 2.12 1.82 1.60 1.41 1.38 1.42 1.41 1.36 1.24 1.12 1.06 0.95 0.89 0.79 0.65 0.58 0.54 0.49 0.43 0.39 0.39 0.37 0.31 0.29 0.26 0.23 0.22 0.20 0.18 0.19 0.29 0.45 0.50 0.53 0.59 0.62
2.82 2.93 3.02 2.90 2.71 2.39 2.17 2.15 1.96 1.72 1.51 1.42 1.36 1.35 1.40 1.35 1.24 1.20 1.01 0.95 0.90 0.81 0.74 0.67 0.61 0.57 0.52 0.49 0.43 0.38 0.37 0.33 0.31 0.33 0.30 0.24 0.20 0.20 0.32 0.49 0.65 0.75 0.80
2.90 3.11 3.19 3.19 3.00 2.61 2.29 2.17 2.03 1.87 1.72 1.57 1.31 1.24 1.29 1.38 1.44 1.44 1.19 1.04 0.96 0.92 0.92 0.87 0.80 0.77 0.68 0.58 0.50 0.48 0.43 0.37 0.32 0.32 0.31 0.29 0.25 0.22 0.23 0.37 0.59 0.73 0.81
2.97 3.13 3.21 3.25 3.19 2.92 2.54 2.35 2.16 1.97 1.86 1.75 1.54 1.37 1.28 1.32 1.49 1.62 1.37 1.17 1.07 1.04 1.01 0.94 0.86 0.83 0.73 0.66 0.57 0.51 0.46 0.41 0.37 0.33 0.31 0.28 0.27 0.23 0.21 0.24 0.37 0.55 0.67
2.81 3.05 3.30 3.28 3.21 3.12 2.88 2.68 2.49 2.24 2.07 1.92 1.68 1.49 1.46 1.44 1.51 1.68 1.46 1.25 1.19 1.14 1.04 1.03 0.97 0.90 0.80 0.72 0.67 0.60 0.54 0.48 0.42 0.38 0.33 0.29 0.27 0.25 0.22 0.21 0.24 0.30 0.43
2.61 2.92 3.11 3.40 3.38 3.43 3.35 3.08 2.86 2.64 2.35 2.12 1.85 1.61 1.55 1.54 1.53 1.68 1.61 1.38 1.31 1.26 1.12 1.03 1.02 1.05 1.02 0.92 0.84 0.76 0.68 0.60 0.54 0.46 0.40 0.34 0.28 0.26 0.24 0.23 0.23 0.24 0.30
2.37 2.68 2.83 3.07 3.30 3.39 3.32 3.00 2.72 2.56 2.49 2.33 2.05 1.83 1.78 1.70 1.59 1.65 1.72 1.57 1.37 1.30 1.24 1.13 1.09 1.07 1.12 1.19 1.16 1.01 0.88 0.76 0.64 0.55 0.48 0.42 0.35 0.31 0.30 0.30 0.31 0.31 0.32
2.09 2.27 2.58 2.69 3.00 3.05 2.97 2.92 2.79 2.73 2.67 2.55 2.37 2.09 1.95 1.89 1.77 1.69 1.69 1.65 1.48 1.33 1.35 1.37 1.29 1.21 1.16 1.18 1.25 1.24 1.11 1.03 0.82 0.63 0.57 0.53 0.47 0.44 0.41 0.39 0.38 0.40 0.40
1.82 2.10 2.23 2.37 2.63 2.89 2.94 3.10 3.19 3.15 2.90 2.64 2.46 2.37 2.17 2.06 1.97 1.83 1.74 1.74 1.65 1.45 1.32 1.39 1.44 1.42 1.40 1.40 1.34 1.44 1.35 1.10 0.92 0.74 0.62 0.58 0.56 0.54 0.52 0.49 0.46 0.46 0.47
1.46 1.86 2.16 2.35 2.52 2.72 3.03 3.02 2.91 2.78 2.60 2.34 2.32 2.39 2.38 2.27 2.15 1.99 1.93 1.91 1.79 1.64 1.49 1.47 1.51 1.58 1.62 1.60 1.55 1.43 1.33 1.15 1.10 0.94 0.71 0.63 0.60 0.55 0.54 0.54 0.50 0.46 0.47
1.18 1.56 1.91 2.17 2.48 2.72 2.84 2.84 2.87 2.67 2.49 2.45 2.38 2.39 2.30 2.20 2.16 2.11 2.04 2.08 1.98 1.82 1.75 1.74 1.71 1.74 1.75 1.72 1.65 1.56 1.50 1.34 1.20 1.15 0.93 0.74 0.72 0.66 0.58 0.55 0.55 0.56 0.58
0.98 1.22 1.61 1.89 2.04 2.34 2.64 2.66 2.64 2.62 2.58 2.54 2.36 2.27 2.28 2.23 2.15 2.09 2.13 2.15 2.13 2.04 1.92 1.88 1.87 1.90 1.91 1.87 1.82 1.68 1.59 1.51 1.35 1.33 1.21 0.97 0.92 0.85 0.75 0.68 0.65 0.64 0.66